EW3456 Weather Reports


Display with metric or nautical units.
time (UTC)temp
F
wind
direction
speed
MPH
gust
MPH
rain 1hr
in
rain 24hr
in
rain mn
in
humidity
%
barometer
mb
20260506090602 64 53 0.0 1.0 0.00 0.00 0.00 76 1012.7
20260506083601 64 77 0.0 1.0 0.00 0.00 0.00 76 1013.2
20260506082602 64 82 0.0 1.0 0.00 0.00 0.00 76 1013.1
20260506081602 65 76 0.0 1.0 0.00 0.00 0.00 76 1013.1
20260506072601 65 85 0.0 2.0 0.00 0.00 0.00 75 1013.2
20260506070601 65 102 0.0 2.0 0.00 0.00 0.00 75 1013.6
20260506061602 66 89 0.0 2.0 0.00 0.00 0.00 73 1013.5
20260506050602 67 95 0.0 1.0 0.00 0.00 0.00 71 1013.7
20260506043601 68 94 0.0 3.0 0.00 0.00 0.00 69 1013.7
20260506042602 68 174 0.0 2.0 0.00 0.00 0.00 69 1013.7
20260506035601 68 71 0.0 2.0 0.00 0.00 0.00 65 1013.6
20260506034602 69 95 0.0 1.0 0.00 0.00 0.00 64 1013.6
20260506033602 69 112 0.0 3.0 0.00 0.00 0.00 61 1013.4
20260506032601 69 57 0.0 1.0 0.00 0.00 0.00 61 1013.5
20260506031602 69 56 0.0 0.0 0.00 0.00 0.00 62 1013.4
20260506030602 69 56 0.0 0.0 0.00 0.00 0.00 62 1013.4
20260506025601 69 56 0.0 0.0 0.00 0.00 0.00 62 1013.4
20260506023601 70 52 0.0 0.0 0.00 0.00 0.00 62 1013.1
20260506022602 70 52 0.0 0.0 0.00 0.00 0.00 60 1013.0
20260506021602 70 52 0.0 0.0 0.00 0.00 0.00 58 1012.9
20260506020602 70 52 0.0 0.0 0.00 0.00 0.00 58 1013.0
20260506015601 70 52 0.0 0.0 0.00 0.00 0.00 58 1013.0
20260506014602 71 52 0.0 0.0 0.00 0.00 0.00 58 1013.2
20260506013602 71 52 0.0 0.0 0.00 0.00 0.00 59 1013.2
20260506012602 71 52 0.0 0.0 0.00 0.00 0.00 58 1013.3
20260506005602 73 52 0.0 0.0 0.00 0.00 0.00 56 1013.0
20260506004601 73 52 0.0 0.0 0.00 0.00 0.00 55 1013.0
20260506003601 74 52 0.0 0.0 0.00 0.00 0.00 55 1013.1
20260506002602 74 52 0.0 0.0 0.00 0.00 0.00 52 1013.0
20260506001602 75 52 0.0 0.0 0.00 0.00 0.00 51 1012.9
20260506000602 75 52 0.0 0.0 0.00 0.00 0.00 50 1012.8
20260505235602 76 52 0.0 0.0 0.00 0.00 0.00 48 1012.7
20260505234602 76 52 0.0 0.0 0.00 0.00 0.00 49 1012.5
20260505232602 76 59 0.0 2.0 0.00 0.00 0.00 47 1012.4
20260505231601 76 23 0.0 2.0 0.00 0.00 0.00 49 1012.5
20260505230601 76 46 0.0 0.0 0.00 0.00 0.00 48 1012.6
20260505221602 78 61 0.0 3.0 0.00 0.00 0.00 43 1012.8
20260505220602 78 96 0.0 2.0 0.00 0.00 0.00 44 1012.7
20260505214601 78 120 0.0 1.0 0.00 0.00 0.00 43 1012.8
20260505213601 78 85 0.0 2.0 0.00 0.00 0.00 42 1012.8
20260505212602 78 58 0.0 1.0 0.00 0.00 0.00 42 1012.8
20260505211601 78 258 0.0 3.0 0.00 0.00 0.00 43 1012.9
20260505210602 78 314 0.0 2.0 0.00 0.00 0.00 42 1012.9
20260505205602 78 188 0.0 2.0 0.00 0.00 0.00 42 1013.1
20260505204602 78 288 0.0 2.0 0.00 0.00 0.00 44 1013.2
20260505203601 78 316 0.0 2.0 0.00 0.00 0.00 41 1013.2
20260505202601 78 295 0.0 3.0 0.00 0.00 0.00 42 1013.2
20260505201601 77 63 0.0 2.0 0.00 0.00 0.00 44 1013.3
20260505200602 79 94 0.0 3.0 0.00 0.00 0.00 41 1013.6
20260505195601 79 121 0.0 2.0 0.00 0.00 0.00 41 1013.8
20260505194601 79 246 0.0 2.0 0.00 0.00 0.00 42 1014.1
20260505193602 78 299 0.0 1.0 0.00 0.00 0.00 44 1014.1
20260505191601 78 345 0.0 2.0 0.00 0.00 0.00 40 1014.3
20260505185601 78 305 0.0 2.0 0.00 0.00 0.00 40 1014.5
20260505184602 77 16 0.0 1.0 0.00 0.00 0.00 43 1014.4
20260505183602 78 307 0.0 2.0 0.00 0.00 0.00 39 1014.5
20260505181602 79 256 0.0 2.0 0.00 0.00 0.00 40 1015.2
20260505180602 78 21 0.0 3.0 0.00 0.00 0.00 40 1015.3
20260505175601 78 254 0.0 3.0 0.00 0.00 0.00 40 1015.6
20260505174602 77 278 0.0 2.0 0.00 0.00 0.00 43 1015.8
20260505173601 77 209 0.0 3.0 0.00 0.00 0.00 42 1015.7
20260505172601 76 260 0.0 2.0 0.00 0.00 0.00 43 1015.8
20260505171602 77 263 1.0 2.0 0.00 0.00 0.00 41 1015.7
20260505170602 76 186 0.0 2.0 0.00 0.00 0.00 40 1015.5
20260505165602 76 165 0.0 2.0 0.00 0.00 0.00 42 1015.6
20260505164602 75 290 0.0 3.0 0.00 0.00 0.00 41 1015.8
20260505162602 75 206 0.0 4.0 0.00 0.00 0.00 43 1016.1
20260505161601 75 249 0.0 4.0 0.00 0.00 0.00 49 1016.5
20260505152601 72 298 0.0 2.0 0.00 0.00 0.00 59 1016.8
20260505151601 72 38 0.0 2.0 0.00 0.00 0.00 62 1016.8
20260505150601 71 64 0.0 1.0 0.00 0.00 0.00 63 1016.8
20260505140602 66 295 0.0 1.0 0.00 0.00 0.00 76 1016.5
20260505124601 55 86 0.0 0.0 0.00 0.00 0.00 92 1016.4
20260505123601 55 86 0.0 0.0 0.00 0.00 0.00 92 1016.3
20260505122602 54 86 0.0 0.0 0.00 0.00 0.00 92 1016.4
20260505121601 54 86 0.0 0.0 0.00 0.00 0.00 92 1016.2
20260505120602 53 86 0.0 0.0 0.00 0.00 0.00 92 1016.1
20260505115602 53 86 0.0 0.0 0.00 0.00 0.00 91 1015.9
20260505114601 53 86 0.0 0.0 0.00 0.00 0.00 91 1015.8
20260505113601 52 86 0.0 1.0 0.00 0.00 0.00 91 1015.9
20260505112602 52 86 0.0 0.0 0.00 0.00 0.00 91 1015.9
20260505111601 52 86 0.0 0.0 0.00 0.00 0.00 90 1015.7
20260505110601 52 86 0.0 0.0 0.00 0.00 0.00 90 1015.5
20260505101602 53 86 0.0 0.0 0.00 0.00 0.00 89 1015.5
20260505100602 53 86 0.0 0.0 0.00 0.00 0.00 89 1015.5
20260505095602 53 88 0.0 0.0 0.00 0.00 0.00 89 1015.4
20260505093601 53 88 0.0 0.0 0.00 0.00 0.00 88 1015.4
20260505092601 53 88 0.0 0.0 0.00 0.00 0.00 88 1015.3
20260505091601 53 88 0.0 0.0 0.00 0.00 0.00 88 1015.2